DW8485 Goose Creek SC US current weather conditions

sailwx.info

Wind from 198 at 1 knots gusting 6

Air temperature 19.4° C
Dewpoint 17.0° C

Last reported at 2019-Dec-09 23:56 UTC.
Time now 2019-Dec-10 00:21 UTC

Location: N 32°59' W 080°02'.
View on Google Maps.

See reports from other nearby stations

  
Tides and Currents Weather Stations Pressure Air Temp Water Temp Dewpoint Dewpoint Depression Visibility Wind Speed Wind Dir Waves Ship Positions
date/time (UTC)wind fromknots sea level pressurealtimeterstation pressurevisibilityair tempwater tempwave heightnotes
2019-Dec-09 23:56 198 1 gusting 6 19.4
2019-Dec-09 23:51 186 0 gusting 4 19.4
2019-Dec-09 23:46 185 0 gusting 6 18.9
2019-Dec-09 23:41 217 0 gusting 6 18.9
2019-Dec-09 23:36 223 1 gusting 4 18.9
2019-Dec-09 23:31 185 3 gusting 4 18.9
2019-Dec-09 23:26 246 0 gusting 6 18.9
2019-Dec-09 23:21 210 1 gusting 6 18.9
2019-Dec-09 23:16 215 0 gusting 6 18.9
2019-Dec-09 23:11 216 0 gusting 6 18.9
2019-Dec-09 23:06 143 19.4
2019-Dec-09 23:01 142 0 gusting 4 19.4
2019-Dec-09 22:56 209 1 gusting 3 19.4
2019-Dec-09 22:51 217 1 gusting 4 19.4
2019-Dec-09 22:46 217 1 gusting 4 19.4
2019-Dec-09 22:41 171 1 gusting 6 20.0
2019-Dec-09 22:36 170 0 gusting 6 20.0
2019-Dec-09 22:31 185 0 gusting 6 20.0
2019-Dec-09 22:26 206 1 gusting 6 20.0
2019-Dec-09 22:21 181 1 gusting 6 20.0
2019-Dec-09 22:16 240 1 gusting 6 20.6
2019-Dec-09 22:11 156 1 gusting 6 20.6
2019-Dec-09 22:06 165 3 gusting 6 20.6
2019-Dec-09 22:01 199 1 gusting 6 20.6
2019-Dec-09 21:56 200 0 gusting 7 21.1
2019-Dec-09 21:51 220 1 gusting 9 21.1
2019-Dec-09 21:46 148 2 gusting 9 21.1
2019-Dec-09 21:41 186 1 gusting 7 21.1
2019-Dec-09 21:36 169 3 gusting 6 21.1
2019-Dec-09 21:31 165 1 gusting 6 21.7
2019-Dec-09 21:26 148 1 gusting 7 21.7
2019-Dec-09 21:21 196 0 gusting 7 21.7
2019-Dec-09 21:16 213 1 gusting 6 21.7
2019-Dec-09 21:11 229 3 gusting 10 21.7
2019-Dec-09 21:06 198 6 gusting 10 22.2
2019-Dec-09 21:01 138 0 gusting 7 22.2
2019-Dec-09 20:56 192 2 gusting 6 22.2
2019-Dec-09 20:51 157 1 gusting 7 22.2
2019-Dec-09 20:46 182 1 gusting 7 22.2
2019-Dec-09 20:41 219 3 gusting 7 22.2
2019-Dec-09 20:36 205 2 gusting 8 22.2
2019-Dec-09 20:31 255 3 gusting 8 22.2
2019-Dec-09 20:26 211 5 gusting 8 22.8
2019-Dec-09 20:21 215 2 gusting 7 22.8
2019-Dec-09 20:16 228 5 gusting 7 22.8
2019-Dec-09 20:11 200 3 gusting 9 22.8
2019-Dec-09 20:06 172 5 gusting 9 22.8
2019-Dec-09 20:01 244 6 gusting 7 22.8
2019-Dec-09 19:56 221 2 gusting 7 22.8
2019-Dec-09 19:51 170 1 gusting 7 23.3
2019-Dec-09 19:46 207 1 gusting 9 23.3
2019-Dec-09 19:41 205 3 gusting 9 23.3
2019-Dec-09 19:36 194 0 gusting 6 22.8
2019-Dec-09 19:31 165 0 gusting 6 22.8
2019-Dec-09 19:26 148 2 gusting 6 22.2
2019-Dec-09 19:21 208 2 gusting 6 22.2
2019-Dec-09 19:16 202 1 gusting 6 22.2
2019-Dec-09 19:11 175 2 gusting 6 22.2
2019-Dec-09 19:06 167 0 gusting 4 22.2
2019-Dec-09 19:01 144 1 gusting 6 22.2
2019-Dec-09 18:56 228 0 gusting 6 22.2
2019-Dec-09 18:51 157 1 gusting 4 22.2
2019-Dec-09 18:46 205 0 gusting 3 22.2
2019-Dec-09 18:41 142 0 gusting 3 21.7
2019-Dec-09 18:36 138 21.7
2019-Dec-09 18:31 195 0 gusting 6 21.7
2019-Dec-09 18:26 124 1 gusting 6 21.7
2019-Dec-09 18:21 235 1 gusting 8 21.1
2019-Dec-09 18:16 216 3 gusting 8 21.7
2019-Dec-09 18:11 235 0 gusting 6 21.7
2019-Dec-09 18:06 206 1 gusting 6 21.1
2019-Dec-09 18:01 211 3 gusting 6 21.1
2019-Dec-09 17:56 264 2 gusting 6 20.6
2019-Dec-09 17:51 186 1 gusting 6 20.6
2019-Dec-09 17:46 150 20.0
2019-Dec-09 17:40 180 1 gusting 4 19.4
2019-Dec-09 17:31 184 1 gusting 4 18.9
2019-Dec-09 17:26 157 0 gusting 4 18.3
2019-Dec-09 17:21 176 1 gusting 4 17.8
2019-Dec-09 17:16 166 0 gusting 6 17.8
2019-Dec-09 17:11 174 0 gusting 6 17.8
2019-Dec-09 17:06 177 5 gusting 6 17.8
2019-Dec-09 17:01 223 2 gusting 3 17.8
2019-Dec-09 16:56 165 0 gusting 3 17.2
2019-Dec-09 16:51 178 1 gusting 4 17.2
2019-Dec-09 16:46 180 0 gusting 6 17.2
2019-Dec-09 16:41 171 3 gusting 6 16.7
2019-Dec-09 16:36 170 1 gusting 4 16.7
2019-Dec-09 16:31 232 1 gusting 3 16.7
2019-Dec-09 16:26 175 16.1
2019-Dec-09 16:21 175 1 gusting 4 16.1
2019-Dec-09 16:16 153 0 gusting 2 16.1
2019-Dec-09 16:11 152 15.6
2019-Dec-09 16:06 152 15.6
2019-Dec-09 16:01 152 15.0
2019-Dec-09 15:56 151 0 gusting 2 15.0
2019-Dec-09 15:51 150 0 gusting 2 14.4
2019-Dec-09 15:46 150 0 gusting 2 14.4
2019-Dec-09 15:41 150 14.4
2019-Dec-09 15:36 148 13.9
2019-Dec-09 15:31 148 0 gusting 2 13.9
2019-Dec-09 15:26 148 0 gusting 2 13.9
2019-Dec-09 15:21 149 13.3
2019-Dec-09 15:16 148 13.3
2019-Dec-09 15:11 150 12.8
2019-Dec-09 15:06 148 1 gusting 4 12.8
2019-Dec-09 15:01 101 12.8
2019-Dec-09 14:56 071 12.2
2019-Dec-09 14:51 068 12.2
2019-Dec-09 14:46 068 12.2
2019-Dec-09 14:41 068 12.2
2019-Dec-09 14:36 068 0 gusting 1 11.7
2019-Dec-09 14:31 068 11.7
2019-Dec-09 14:26 068 11.7
2019-Dec-09 14:21 068 11.7
2019-Dec-09 14:16 068 0 gusting 3 11.1
2019-Dec-09 14:11 068 11.1
2019-Dec-09 14:06 069 0 gusting 2 11.1
2019-Dec-09 14:01 069 11.1
2019-Dec-09 13:56 069 11.1
2019-Dec-09 13:51 069 11.1
2019-Dec-09 13:46 069 11.1
2019-Dec-09 13:41 069 11.1
2019-Dec-09 13:36 069 10.6
2019-Dec-09 13:31 069 10.6
2019-Dec-09 13:26 069 0 gusting 3 10.6
2019-Dec-09 13:21 069 0 gusting 3 10.6
2019-Dec-09 13:16 069 10.6
2019-Dec-09 13:11 069 0 gusting 2 10.6
2019-Dec-09 13:06 069 10.6
2019-Dec-09 13:01 069 0 gusting 1 10.6
2019-Dec-09 12:56 069 10.6
2019-Dec-09 12:51 069 10.6
2019-Dec-09 12:46 069 10.6
2019-Dec-09 12:41 069 10.6
2019-Dec-09 12:36 069 10.6
2019-Dec-09 12:31 069 10.6
2019-Dec-09 12:26 069 10.6
2019-Dec-09 12:21 069 10.6
2019-Dec-09 12:16 069 10.6
2019-Dec-09 12:11 069 0 gusting 2 10.6
2019-Dec-09 12:06 069 0 gusting 1 10.6
2019-Dec-09 12:01 069 10.6
2019-Dec-09 11:56 069 10.6
2019-Dec-09 11:51 069 1 gusting 3 10.6
2019-Dec-09 11:46 069 10.6
2019-Dec-09 11:41 069 10.6
2019-Dec-09 11:36 070 10.6
2019-Dec-09 11:31 070 0 gusting 2 10.6
2019-Dec-09 11:26 070 10.6
2019-Dec-09 11:21 069 10.6
2019-Dec-09 11:16 069 10.6
2019-Dec-09 11:11 070 10.6
2019-Dec-09 11:06 069 10.6
2019-Dec-09 11:01 070 0 gusting 2 10.6
2019-Dec-09 10:56 070 10.6
2019-Dec-09 10:51 070 10.6
2019-Dec-09 10:46 070 1 gusting 2 10.6
2019-Dec-09 10:41 070 10.6
2019-Dec-09 10:36 070 1 gusting 3 10.6
2019-Dec-09 10:31 100 10.6
2019-Dec-09 10:26 100 10.6
2019-Dec-09 10:21 100 10.6
2019-Dec-09 10:16 100 10.6
2019-Dec-09 10:11 100 10.6
2019-Dec-09 10:06 100 0 gusting 2 10.6
2019-Dec-09 10:01 100 10.6
2019-Dec-09 09:56 100 10.6
2019-Dec-09 09:51 100 10.6
2019-Dec-09 09:46 100 10.6
2019-Dec-09 09:41 100 10.6
2019-Dec-09 09:36 100 10.6
2019-Dec-09 09:31 100 10.6
2019-Dec-09 09:26 101 10.6
2019-Dec-09 09:21 102 10.6
2019-Dec-09 09:16 102 10.6
2019-Dec-09 09:11 102 10.6
2019-Dec-09 09:06 102 10.6
2019-Dec-09 09:01 102 0 gusting 2 10.6
2019-Dec-09 08:56 102 10.6
2019-Dec-09 08:51 102 10.6
2019-Dec-09 08:46 102 10.6
2019-Dec-09 08:41 102 0 gusting 2 10.6
2019-Dec-09 08:36 102 10.6
2019-Dec-09 08:31 103 10.6
2019-Dec-09 08:26 103 10.6
2019-Dec-09 08:21 101 0 gusting 1 10.6
2019-Dec-09 08:16 101 0 gusting 2 10.6
2019-Dec-09 08:11 102 10.6
2019-Dec-09 08:06 103 10.6
2019-Dec-09 08:01 103 0 gusting 2 10.6
2019-Dec-09 07:56 103 0 gusting 2 10.6
2019-Dec-09 07:51 103 10.6
2019-Dec-09 07:46 019 10.6
2019-Dec-09 07:41 019 10.6
2019-Dec-09 07:36 019 10.6
2019-Dec-09 07:31 019 10.6
2019-Dec-09 07:26 019 10.6
2019-Dec-09 07:21 019 0 gusting 1 10.6
2019-Dec-09 07:16 019 10.6
2019-Dec-09 07:11 019 0 gusting 1 10.6
2019-Dec-09 07:06 019 10.6
2019-Dec-09 07:01 019 10.6
2019-Dec-09 06:56 019 10.6
2019-Dec-09 06:51 019 10.6
2019-Dec-09 06:46 019 10.6
2019-Dec-09 06:41 019 10.6
2019-Dec-09 06:36 019 0 gusting 2 10.6
2019-Dec-09 06:31 019 0 gusting 2 10.6
2019-Dec-09 06:26 020 0 gusting 2 10.6
2019-Dec-09 06:21 019 10.6
2019-Dec-09 06:16 019 11.1
2019-Dec-09 06:11 019 11.1
2019-Dec-09 06:06 019 10.6
2019-Dec-09 06:01 019 10.6
2019-Dec-09 05:56 019 10.6
2019-Dec-09 05:51 011 0 gusting 2 10.6
2019-Dec-09 05:46 011 1 gusting 2 10.6
2019-Dec-09 05:41 010 11.1
2019-Dec-09 05:36 010 0 gusting 3 11.1
2019-Dec-09 05:31 011 11.1
2019-Dec-09 05:26 011 0 gusting 2 11.1
2019-Dec-09 05:21 011 1 gusting 2 11.1
2019-Dec-09 05:16 011 0 gusting 1 11.1
2019-Dec-09 05:11 005 11.1
2019-Dec-09 05:06 005 11.1
2019-Dec-09 05:01 005 11.1
2019-Dec-09 04:56 005 11.1
2019-Dec-09 04:51 005 11.1
2019-Dec-09 04:46 005 11.1
2019-Dec-09 04:41 005 11.1
2019-Dec-09 04:36 005 0 gusting 1 11.1
2019-Dec-09 04:31 005 11.1
2019-Dec-09 04:26 005 11.1
2019-Dec-09 04:21 005 11.1
2019-Dec-09 04:16 005 11.1
2019-Dec-09 04:11 005 11.1
2019-Dec-09 04:06 005 0 gusting 4 11.1
2019-Dec-09 04:01 012 11.1
2019-Dec-09 03:56 011 0 gusting 3 11.1
2019-Dec-09 03:51 010 1 gusting 2 11.1
2019-Dec-09 03:46 010 11.1
2019-Dec-09 03:41 010 11.1
2019-Dec-09 03:36 009 1 gusting 2 11.1
2019-Dec-09 03:31 009 0 gusting 2 11.1
2019-Dec-09 03:26 009 11.1
2019-Dec-09 03:21 010 1 gusting 2 11.1
2019-Dec-09 03:16 010 11.1
2019-Dec-09 03:11 010 11.1
2019-Dec-09 03:06 010 11.1
2019-Dec-09 03:01 010 11.1
2019-Dec-09 02:56 010 0 gusting 2 11.1
2019-Dec-09 02:51 010 11.1
2019-Dec-09 02:46 010 11.1
2019-Dec-09 02:41 009 11.1
2019-Dec-09 02:36 009 11.1
2019-Dec-09 02:31 009 0 gusting 2 11.1
2019-Dec-09 02:26 005 11.1
2019-Dec-09 02:21 005 1 gusting 2 11.1
2019-Dec-09 02:16 005 11.1
2019-Dec-09 02:11 005 11.1
2019-Dec-09 02:06 005 11.1
2019-Dec-09 02:01 005 11.1
2019-Dec-09 01:56 005 11.1
2019-Dec-09 01:51 005 11.1
2019-Dec-09 01:46 005 11.1
2019-Dec-09 01:41 005 11.1
2019-Dec-09 01:36 005 10.6
2019-Dec-09 01:31 005 10.6
2019-Dec-09 01:26 005 10.6
2019-Dec-09 01:21 005 10.6
2019-Dec-09 01:16 005 10.6
2019-Dec-09 01:11 005 10.6
2019-Dec-09 01:06 005 10.6
2019-Dec-09 01:01 005 10.6
2019-Dec-09 00:56 005 10.6
2019-Dec-09 00:51 005 10.6
2019-Dec-09 00:46 005 11.1
2019-Dec-09 00:41 005 11.1
2019-Dec-09 00:36 005 11.1
2019-Dec-09 00:31 005 11.1
2019-Dec-09 00:26 005 11.1
2019-Dec-09 00:21 005 0 gusting 2 11.7
2019-Dec-09 00:16 005 0 gusting 2 11.7
2019-Dec-09 00:11 005 11.7
2019-Dec-09 00:06 005 11.7
2019-Dec-09 00:01 005 11.7
2019-Dec-08 23:56 005 0 gusting 1 11.7
2019-Dec-08 23:51 005 11.7
2019-Dec-08 23:46 005 11.7
2019-Dec-08 23:41 005 12.2
2019-Dec-08 23:36 005 12.2
2019-Dec-08 23:31 005 12.8
2019-Dec-08 23:26 005 0 gusting 2 12.8
2019-Dec-08 23:21 005 12.8
2019-Dec-08 23:16 005 0 gusting 2 12.8
2019-Dec-08 23:11 005 0 gusting 2 12.8
2019-Dec-08 23:06 005 12.8
2019-Dec-08 23:01 005 12.8
2019-Dec-08 22:56 005 0 gusting 2 12.2
2019-Dec-08 22:51 005 12.8
2019-Dec-08 22:46 005 12.8
2019-Dec-08 22:41 005 0 gusting 1 13.3
2019-Dec-08 22:36 005 13.3
2019-Dec-08 22:31 005 13.3
2019-Dec-08 22:26 005 13.9
2019-Dec-08 22:21 005 13.9
2019-Dec-08 22:16 005 0 gusting 2 13.9
2019-Dec-08 22:11 005 14.4
2019-Dec-08 22:06 005 14.4
2019-Dec-08 22:01 005 14.4
2019-Dec-08 21:56 005 14.4
2019-Dec-08 21:51 005 15.0
2019-Dec-08 21:46 005 15.0
2019-Dec-08 21:41 005 0 gusting 4 15.0
2019-Dec-08 21:36 020 1 gusting 4 15.6
2019-Dec-08 21:31 024 15.6
2019-Dec-08 21:26 026 0 gusting 6 15.6
2019-Dec-08 21:21 355 0 gusting 4 16.1
2019-Dec-08 21:16 024 1 gusting 4 16.1
2019-Dec-08 21:11 032 1 gusting 6 16.1
2019-Dec-08 21:06 067 2 gusting 6 16.7
2019-Dec-08 21:01 055 1 gusting 4 16.7
2019-Dec-08 20:56 032 0 gusting 4 16.7
2019-Dec-08 20:51 034 0 gusting 3 16.7
2019-Dec-08 20:46 035 1 gusting 3 17.2
2019-Dec-08 20:41 015 0 gusting 2 16.7
2019-Dec-08 20:36 015 0 gusting 3 17.2
2019-Dec-08 20:31 011 1 gusting 3 17.2
2019-Dec-08 20:26 338 1 gusting 4 17.2
2019-Dec-08 20:21 020 1 gusting 8 16.7
2019-Dec-08 20:16 005 0 gusting 8 17.2
2019-Dec-08 20:11 028 2 gusting 6 17.2
2019-Dec-08 20:06 005 1 gusting 8 17.2
2019-Dec-08 20:01 005 1 gusting 8 17.2
2019-Dec-08 19:56 027 5 gusting 6 17.2
2019-Dec-08 19:51 017 0 gusting 7 17.2
2019-Dec-08 19:46 024 1 gusting 7 17.2
2019-Dec-08 19:41 022 2 gusting 6 17.2
2019-Dec-08 19:36 019 1 gusting 6 17.2
2019-Dec-08 19:31 049 1 gusting 11 17.2
2019-Dec-08 19:26 032 1 gusting 11 17.2
2019-Dec-08 19:21 022 1 gusting 6 16.7
2019-Dec-08 19:16 032 1 gusting 7 16.7
2019-Dec-08 19:11 349 5 gusting 8 16.7
2019-Dec-08 19:06 019 5 gusting 8 16.7
2019-Dec-08 19:01 342 16.7
2019-Dec-08 18:56 014 6 gusting 7 17.2
2019-Dec-08 18:51 011 6 gusting 10 16.7
2019-Dec-08 18:46 360 2 gusting 10 17.2
2019-Dec-08 18:41 030 2 gusting 8 16.7
2019-Dec-08 18:36 344 1 gusting 8 16.7
2019-Dec-08 18:31 018 2 gusting 8 16.1
2019-Dec-08 18:26 037 3 gusting 7 16.1
2019-Dec-08 18:21 048 3 gusting 7 16.1
2019-Dec-08 18:16 044 0 gusting 6 16.1
2019-Dec-08 18:11 052 1 gusting 7 16.1
2019-Dec-08 18:06 339 2 gusting 7 16.1
2019-Dec-08 18:01 355 5 gusting 7 15.6
2019-Dec-08 17:56 046 3 gusting 7 15.6
2019-Dec-08 17:51 023 15.6
2019-Dec-08 17:46 034 6 gusting 7 15.6
2019-Dec-08 17:41 025 1 gusting 7 15.0
2019-Dec-08 17:36 030 3 gusting 7 15.0
2019-Dec-08 17:31 038 3 gusting 7 15.0
2019-Dec-08 17:26 355 2 gusting 7 15.0
2019-Dec-08 17:21 032 2 gusting 6 15.0
2019-Dec-08 17:16 009 1 gusting 6 14.4
2019-Dec-08 17:11 048 1 gusting 6 14.4
2019-Dec-08 17:06 016 2 gusting 8 14.4
2019-Dec-08 17:01 014 0 gusting 8 13.9
2019-Dec-08 16:56 024 6 gusting 8 13.9
2019-Dec-08 16:51 041 1 gusting 7 13.9
2019-Dec-08 16:46 355 3 gusting 7 13.3
2019-Dec-08 16:41 030 1 gusting 6 13.3
2019-Dec-08 16:36 046 1 gusting 6 13.3
2019-Dec-08 16:31 038 1 gusting 6 12.8
2019-Dec-08 16:26 042 3 gusting 7 12.8
2019-Dec-08 16:21 044 2 gusting 7 12.2
2019-Dec-08 16:16 010 12.2
2019-Dec-08 16:11 080 2 gusting 9 12.2
2019-Dec-08 16:06 034 1 gusting 7 11.7
2019-Dec-08 16:01 344 2 gusting 9 11.1
2019-Dec-08 15:56 344 2 gusting 9 10.6
2019-Dec-08 15:51 040 2 gusting 8 10.6
2019-Dec-08 15:46 021 2 gusting 8 10.6
2019-Dec-08 15:41 355 3 gusting 6 10.6
2019-Dec-08 15:36 005 1 gusting 7 10.0
2019-Dec-08 15:31 329 3 gusting 7 10.0
2019-Dec-08 15:26 066 0 gusting 9 9.4
2019-Dec-08 15:21 023 0 gusting 9 9.4
2019-Dec-08 15:16 023 3 gusting 9 8.9
2019-Dec-08 15:11 018 5 gusting 9 8.9
2019-Dec-08 15:06 333 1 gusting 6 8.9
2019-Dec-08 15:01 016 1 gusting 4 8.9
2019-Dec-08 14:56 018 0 gusting 6 8.3
2019-Dec-08 14:51 009 0 gusting 6 8.3
2019-Dec-08 14:46 013 1 gusting 8 8.3
2019-Dec-08 14:41 059 1 gusting 8 7.8
2019-Dec-08 14:36 020 3 gusting 6 7.8
2019-Dec-08 14:31 333 0 gusting 6 7.8
2019-Dec-08 14:26 355 2 gusting 6 7.2
2019-Dec-08 14:21 024 1 gusting 6 7.2
2019-Dec-08 14:16 034 7.2
2019-Dec-08 14:11 019 1 gusting 6 6.7
2019-Dec-08 14:06 036 0 gusting 6 6.7
2019-Dec-08 14:01 025 6.7
2019-Dec-08 13:56 037 0 gusting 6 6.1
2019-Dec-08 13:51 355 6.1
2019-Dec-08 13:46 038 2 gusting 6 5.6
2019-Dec-08 13:41 034 0 gusting 6 5.6
2019-Dec-08 13:36 069 0 gusting 6 5.6
2019-Dec-08 13:31 024 5.0
2019-Dec-08 13:26 053 1 gusting 4 5.0
2019-Dec-08 13:21 029 1 gusting 4 5.0
2019-Dec-08 13:16 011 2 gusting 4 5.0
2019-Dec-08 13:11 019 0 gusting 6 5.0
2019-Dec-08 13:06 021 0 gusting 6 4.4
2019-Dec-08 13:01 034 3 gusting 4 4.4
2019-Dec-08 12:56 022 1 gusting 6 4.4
2019-Dec-08 12:51 034 4.4
2019-Dec-08 12:46 061 0 gusting 4 4.4
2019-Dec-08 12:41 017 0 gusting 6 4.4
2019-Dec-08 12:36 012 1 gusting 6 4.4
2019-Dec-08 12:31 049 0 gusting 3 4.4
2019-Dec-08 12:26 054 3.9
2019-Dec-08 12:21 017 0 gusting 3 4.4
2019-Dec-08 12:16 017 0 gusting 3 4.4
2019-Dec-08 12:11 016 4.4
2019-Dec-08 12:06 012 1 gusting 4 4.4
2019-Dec-08 12:01 360 1 gusting 3 4.4
2019-Dec-08 11:56 017 0 gusting 2 4.4
2019-Dec-08 11:51 018 0 gusting 2 4.4
2019-Dec-08 11:46 017 4.4
2019-Dec-08 11:41 017 5.0
2019-Dec-08 11:36 015 0 gusting 6 5.0
2019-Dec-08 11:31 067 0 gusting 6 5.0
2019-Dec-08 11:26 017 0 gusting 7 5.0
2019-Dec-08 11:21 038 1 gusting 7 5.0
2019-Dec-08 11:16 092 5.0
2019-Dec-08 11:11 092 1 gusting 6 5.0
2019-Dec-08 11:06 053 1 gusting 4 5.0
2019-Dec-08 11:01 063 5.0
2019-Dec-08 10:56 043 0 gusting 2 5.0
2019-Dec-08 10:51 043 1 gusting 2 5.0
2019-Dec-08 10:46 044 0 gusting 4 5.0
2019-Dec-08 10:41 044 0 gusting 4 5.0
2019-Dec-08 10:36 044 3 gusting 4 5.0
2019-Dec-08 10:31 327 0 gusting 6 5.0
2019-Dec-08 10:26 327 0 gusting 6 5.0
2019-Dec-08 10:21 046 0 gusting 2 5.6
2019-Dec-08 10:16 046 5.6
2019-Dec-08 10:11 046 5.6
2019-Dec-08 10:06 059 5.6
2019-Dec-08 10:01 051 0 gusting 3 5.6
2019-Dec-08 09:56 049 5.6
2019-Dec-08 09:51 047 0 gusting 4 5.6
2019-Dec-08 09:46 033 5.6
2019-Dec-08 09:41 047 0 gusting 3 5.6
2019-Dec-08 09:36 072 6.1
2019-Dec-08 09:31 074 1 gusting 2 6.1
2019-Dec-08 09:26 074 0 gusting 2 6.1
2019-Dec-08 09:21 074 6.1
2019-Dec-08 09:16 074 6.1
2019-Dec-08 09:11 074 6.1
2019-Dec-08 09:06 050 0 gusting 4 6.1
2019-Dec-08 09:01 046 0 gusting 4 6.7
2019-Dec-08 08:56 042 0 gusting 3 6.7
2019-Dec-08 08:51 040 0 gusting 3 6.7
2019-Dec-08 08:46 042 0 gusting 3 6.7
2019-Dec-08 08:41 046 0 gusting 4 6.7
2019-Dec-08 08:36 045 6.7
2019-Dec-08 08:31 034 0 gusting 4 6.7
2019-Dec-08 08:26 033 6.7
2019-Dec-08 08:21 050 0 gusting 2 6.7
2019-Dec-08 08:16 049 0 gusting 6 6.7
2019-Dec-08 08:11 049 1 gusting 6 6.7
2019-Dec-08 08:06 037 7.2
2019-Dec-08 08:01 062 0 gusting 3 7.2
2019-Dec-08 07:56 056 1 gusting 3 7.2
2019-Dec-08 07:51 060 1 gusting 3 7.2
2019-Dec-08 07:46 049 0 gusting 6 7.2
2019-Dec-08 07:41 072 7.2
2019-Dec-08 07:36 012 7.2
2019-Dec-08 07:31 070 7.2
2019-Dec-08 07:26 071 1 gusting 4 7.2
2019-Dec-08 07:21 073 0 gusting 1 7.2
2019-Dec-08 07:16 073 0 gusting 3 7.8
2019-Dec-08 07:11 074 0 gusting 3 7.8
2019-Dec-08 07:06 062 7.8
2019-Dec-08 07:01 360 7.8
2019-Dec-08 06:56 336 1 gusting 6 7.8
2019-Dec-08 06:51 043 1 gusting 7 7.8
2019-Dec-08 06:46 078 0 gusting 7 7.8
2019-Dec-08 06:41 024 6 gusting 7 7.8
2019-Dec-08 06:36 055 7.8
2019-Dec-08 06:31 037 1 gusting 4 7.8
2019-Dec-08 06:26 053 0 gusting 6 7.8
2019-Dec-08 06:21 031 7.8
2019-Dec-08 06:16 052 0 gusting 2 7.8
2019-Dec-08 06:11 052 0 gusting 2 8.3
2019-Dec-08 06:06 067 8.3
2019-Dec-08 06:01 067 8.3
2019-Dec-08 05:56 067 0 gusting 3 8.3
2019-Dec-08 05:51 073 0 gusting 4 8.3
2019-Dec-08 05:46 071 8.3
2019-Dec-08 05:41 057 0 gusting 4 8.3
2019-Dec-08 05:36 032 8.3
2019-Dec-08 05:31 032 2 gusting 3 8.3
2019-Dec-08 05:26 032 8.3
2019-Dec-08 05:21 032 8.9
2019-Dec-08 05:16 032 8.9
2019-Dec-08 05:11 057 1 gusting 3 8.9
2019-Dec-08 05:06 058 0 gusting 6 8.9
2019-Dec-08 05:01 016 1 gusting 6 8.9
2019-Dec-08 04:56 005 1 gusting 4 8.9
2019-Dec-08 04:51 050 0 gusting 4 8.9
2019-Dec-08 04:46 076 1 gusting 4 9.4
2019-Dec-08 04:41 026 2 gusting 4 9.4
2019-Dec-08 04:36 103 1 gusting 6 9.4
2019-Dec-08 04:31 036 0 gusting 6 9.4
2019-Dec-08 04:26 026 2 gusting 4 9.4
2019-Dec-08 04:21 020 9.4
2019-Dec-08 04:16 059 1 gusting 3 9.4
2019-Dec-08 04:11 064 0 gusting 6 9.4
2019-Dec-08 04:06 065 0 gusting 6 9.4
2019-Dec-08 04:01 360 0 gusting 2 9.4
2019-Dec-08 03:56 046 9.4
2019-Dec-08 03:51 046 0 gusting 3 9.4
2019-Dec-08 03:46 046 1 gusting 4 10.0
2019-Dec-08 03:41 044 0 gusting 7 10.0
2019-Dec-08 03:36 041 2 gusting 7 10.0
2019-Dec-08 03:31 005 10.0
2019-Dec-08 03:26 005 0 gusting 4 10.0
2019-Dec-08 03:21 051 0 gusting 2 10.0
2019-Dec-08 03:16 050 9.4
2019-Dec-08 03:11 050 9.4
2019-Dec-08 03:06 032 1 gusting 3 9.4
2019-Dec-08 03:01 028 0 gusting 3 8.9
2019-Dec-08 02:56 059 8.9
2019-Dec-08 02:51 049 0 gusting 2 8.9
2019-Dec-08 02:46 048 0 gusting 2 8.9
2019-Dec-08 02:41 048 8.3
2019-Dec-08 02:36 048 8.3
2019-Dec-08 02:31 048 8.3
2019-Dec-08 02:26 048 8.3
2019-Dec-08 02:21 048 8.9
2019-Dec-08 02:16 048 8.9
2019-Dec-08 02:11 048 8.9
2019-Dec-08 02:06 048 8.9
2019-Dec-08 02:01 048 8.9
2019-Dec-08 01:56 048 8.9
2019-Dec-08 01:51 048 8.9
2019-Dec-08 01:46 048 8.9
2019-Dec-08 01:41 048 8.9
2019-Dec-08 01:36 048 8.9
2019-Dec-08 01:31 048 8.9
2019-Dec-08 01:26 048 9.4
2019-Dec-08 01:21 048 9.4
2019-Dec-08 01:16 048 9.4
2019-Dec-08 01:11 048 9.4
2019-Dec-08 01:06 048 9.4
2019-Dec-08 01:01 048 9.4
2019-Dec-08 00:56 048 9.4
2019-Dec-08 00:51 048 9.4
2019-Dec-08 00:46 048 0 gusting 1 9.4
2019-Dec-08 00:41 048 10.0
2019-Dec-08 00:36 048 10.0
2019-Dec-08 00:31 048 10.0
2019-Dec-08 00:26 048 10.0
2019-Dec-08 00:21 048 10.0
2019-Dec-08 00:16 048 10.0
2019-Dec-08 00:11 048 10.6
2019-Dec-08 00:06 048 10.6
2019-Dec-08 00:01 048 10.6